Location: Zagreb
(45.8000°N, 16.0000°E)
Time: 03:09:46
(UTC+02:00)

Transit 2A Rocket - Pass Details

Date: 01 February 2022
Orbit: 592 x 909 km, 66.7° (Epoch: 26 May)

Event Time Altitude Azimuth Distance (km) Brightness Sun altitude
Rises 17:43:13 0° 226° (SW) 3,497 9.7 -7.6°
Reaches altitude 10° 17:45:46 10° 231° (SW) 2,578 9.0 -8.0°
Maximum altitude 17:51:42 55° 309° (NW) 1,086 6.0 -9.0°
Drops below altitude 10° 17:57:38 10° 27° (NNE) 2,574 7.3 -10.0°
Enters shadow 17:59:44 - 31° (NNE) 3,330 7.9 -10.4°
Sets 18:00:11 0° 32° (NNE) 3,491 - -10.5°
